When you browse on this site, cookies collect data to enhance your experience and personalize the content and advertising you see.
Visit our Privacy Policy to learn more. By continuing to use the site, you agree to this use of cookies and data.
  • In Spain
  • List of Countries
  • For 7 days
  • Water Temperature
  • Satellite Maps
  • Weather Map
  • Weather Widgets
  • user-avatar
    Login

    Hourly Weather Ar-Rakka

    Today, 14 December, Friday

    Time Temperature Precipitation Wind Pressure Humidity
    00:00 +10°C° 0 mm 2 mps 745 mmHg 56%
    01:00 +11°C° 0 mm 1 mps 745 mmHg 57%
    02:00 +11°C° 0 mm 1 mps 746 mmHg 58%
    03:00 +11°C° 0 mm 1 mps 746 mmHg 56%
    04:00 +11°C° 0 mm 1 mps 746 mmHg 57%
    05:00 +11°C° 0 mm 1 mps 746 mmHg 58%
    06:00 +11°C° 0 mm 1 mps 746 mmHg 58%
    07:00 +11°C° 0 mm 1 mps 746 mmHg 57%
    08:00 +12°C° 0 mm 1 mps 746 mmHg 56%
    09:00 +12°C° 0 mm 1 mps 747 mmHg 52%
    10:00 +13°C° 0 mm 1 mps 747 mmHg 50%
    11:00 +14°C° 0 mm 1 mps 747 mmHg 49%
    12:00 +15°C° 0 mm 1 mps 747 mmHg 47%
    13:00 +15°C° 0 mm 1 mps 747 mmHg 47%
    14:00 +14°C° 0 mm 0 mps 746 mmHg 47%
    15:00 +15°C° 0 mm 0 mps 746 mmHg 47%
    16:00 +14°C° 0 mm 0 mps 746 mmHg 50%
    17:00 +15°C° 0 mm 1 mps 746 mmHg 53%
    18:00 +14°C° 0 mm 1 mps 746 mmHg 57%
    19:00 +14°C° 0 mm 1 mps 746 mmHg 57%
    20:00 +14°C° 0 mm 2 mps 747 mmHg 58%
    21:00 +13°C° 0 mm 2 mps 747 mmHg 58%
    22:00 +13°C° 0 mm 2 mps 747 mmHg 60%
    23:00 +13°C° 0 mm 2 mps 747 mmHg 61%

    Tomorrow, 15 December, Saturday

    Time Temperature Precipitation Wind Pressure Humidity
    00:00 +12°C° 0 mm 2 mps 747 mmHg 63%
    01:00 +12°C° 0 mm 2 mps 747 mmHg 64%
    02:00 +12°C° 0 mm 2 mps 747 mmHg 65%
    03:00 +12°C° 0 mm 2 mps 747 mmHg 67%
    04:00 +10°C° 0 mm 2 mps 747 mmHg 68%
    05:00 +10°C° 0 mm 2 mps 747 mmHg 69%
    06:00 +10°C° 0 mm 2 mps 747 mmHg 70%
    07:00 +10°C° 0 mm 3 mps 747 mmHg 69%
    08:00 +11°C° 0 mm 3 mps 747 mmHg 67%
    09:00 +11°C° 0 mm 3 mps 747 mmHg 66%
    10:00 +12°C° 0 mm 3 mps 747 mmHg 62%
    11:00 +13°C° 0 mm 3 mps 747 mmHg 57%
    12:00 +14°C° 0 mm 3 mps 747 mmHg 53%
    13:00 +16°C° 0 mm 3 mps 747 mmHg 51%
    14:00 +16°C° 0 mm 3 mps 746 mmHg 49%
    15:00 +17°C° 0 mm 2 mps 746 mmHg 47%
    16:00 +16°C° 0 mm 2 mps 746 mmHg 50%
    17:00 +14°C° 0 mm 3 mps 745 mmHg 53%
    18:00 +14°C° 0 mm 3 mps 745 mmHg 56%
    19:00 +13°C° 0 mm 3 mps 745 mmHg 58%
    20:00 +13°C° 0 mm 3 mps 745 mmHg 60%
    21:00 +12°C° 0 mm 3 mps 745 mmHg 61%
    22:00 +12°C° 0 mm 3 mps 745 mmHg 63%
    23:00 +12°C° 0 mm 3 mps 745 mmHg 64%

    Day after tomorrow, 16 December, Sunday

    Time Temperature Precipitation Wind Pressure Humidity
    00:00 +12°C° 0 mm 3 mps 745 mmHg 65%
    01:00 +11°C° 0 mm 3 mps 745 mmHg 66%
    02:00 +11°C° 0 mm 3 mps 745 mmHg 67%
    03:00 +11°C° 0 mm 3 mps 745 mmHg 68%
    04:00 +11°C° 0 mm 3 mps 745 mmHg 68%
    05:00 +10°C° 0 mm 3 mps 744 mmHg 69%
    06:00 +10°C° 0 mm 4 mps 744 mmHg 70%
    07:00 +11°C° 0 mm 4 mps 744 mmHg 68%
    08:00 +11°C° 0 mm 4 mps 745 mmHg 67%
    09:00 +10°C° 0 mm 5 mps 745 mmHg 65%
    10:00 +13°C° 0 mm 5 mps 745 mmHg 61%
    11:00 +14°C° 0 mm 6 mps 745 mmHg 56%
    12:00 +15°C° 0 mm 6 mps 744 mmHg 51%
    13:00 +16°C° 0 mm 6 mps 744 mmHg 50%
    14:00 +16°C° 0 mm 6 mps 743 mmHg 49%
    15:00 +16°C° 0 mm 6 mps 743 mmHg 48%
    16:00 +16°C° 0 mm 6 mps 743 mmHg 51%
    17:00 +15°C° 0 mm 6 mps 743 mmHg 53%
    18:00 +14°C° 0 mm 6 mps 743 mmHg 56%
    19:00 +14°C° 0.5 mm 5 mps 743 mmHg 58%
    20:00 +14°C° 0.5 mm 5 mps 743 mmHg 61%
    21:00 +13°C° 0.5 mm 5 mps 743 mmHg 64%
    22:00 +13°C° 1.1 mm 5 mps 743 mmHg 69%
    23:00 +12°C° 1.1 mm 5 mps 743 mmHg 73%

    17 December, Monday

    Time Temperature Precipitation Wind Pressure Humidity
    00:00 +12°C° 1.1 mm 5 mps 743 mmHg 78%
    01:00 +11°C° 0.3 mm 6 mps 743 mmHg 79%
    02:00 +10°C° 0.3 mm 6 mps 742 mmHg 80%
    03:00 +10°C° 0.3 mm 6 mps 742 mmHg 82%
    04:00 +10°C° 0.3 mm 6 mps 742 mmHg 82%
    05:00 +10°C° 0.3 mm 6 mps 741 mmHg 83%
    06:00 +10°C° 0.3 mm 6 mps 741 mmHg 84%
    07:00 +10°C° 0.5 mm 6 mps 741 mmHg 84%
    08:00 +10°C° 0.5 mm 6 mps 741 mmHg 84%
    09:00 +10°C° 0.5 mm 6 mps 741 mmHg 85%
    10:00 +10°C° 0.2 mm 5 mps 741 mmHg 85%
    11:00 +10°C° 0.2 mm 5 mps 741 mmHg 84%
    12:00 +11°C° 0.2 mm 4 mps 741 mmHg 84%
    13:00 +11°C° 0.2 mm 4 mps 740 mmHg 84%
    14:00 +11°C° 0.2 mm 4 mps 740 mmHg 84%
    15:00 +11°C° 0.2 mm 3 mps 740 mmHg 84%
    16:00 +11°C° 0.1 mm 3 mps 740 mmHg 84%
    17:00 +11°C° 0.1 mm 3 mps 740 mmHg 85%
    18:00 +10°C° 0.1 mm 3 mps 740 mmHg 85%
    19:00 +10°C° 0 mm 2 mps 740 mmHg 86%
    20:00 +10°C° 0 mm 2 mps 741 mmHg 86%
    21:00 +11°C° 0 mm 1 mps 741 mmHg 87%
    22:00 +11°C° 0 mm 1 mps 741 mmHg 88%
    23:00 +10°C° 0 mm 1 mps 741 mmHg 88%

    18 December, Tuesday

    Time Temperature Precipitation Wind Pressure Humidity
    00:00 +10°C° 0 mm 1 mps 741 mmHg 89%
    01:00 +9°C° 0 mm 2 mps 741 mmHg 89%
    02:00 +9°C° 0 mm 2 mps 741 mmHg 89%
    03:00 +9°C° 0 mm 2 mps 740 mmHg 89%
    04:00 +9°C° 0 mm 2 mps 741 mmHg 89%
    05:00 +8°C° 0 mm 2 mps 741 mmHg 89%
    06:00 +8°C° 0 mm 2 mps 741 mmHg 89%
    07:00 +9°C° 0 mm 2 mps 741 mmHg 87%
    08:00 +9°C° 0 mm 2 mps 742 mmHg 85%
    09:00 +10°C° 0 mm 2 mps 742 mmHg 83%
    10:00 +12°C° 0 mm 2 mps 742 mmHg 76%
    11:00 +13°C° 0 mm 2 mps 742 mmHg 70%
    12:00 +14°C° 0 mm 2 mps 742 mmHg 63%
    13:00 +15°C° 0 mm 2 mps 742 mmHg 61%
    14:00 +15°C° 0 mm 2 mps 742 mmHg 58%
    15:00 +16°C° 0 mm 2 mps 741 mmHg 56%
    16:00 +15°C° 0 mm 2 mps 742 mmHg 60%
    17:00 +14°C° 0 mm 1 mps 742 mmHg 65%
    18:00 +13°C° 0 mm 0 mps 742 mmHg 69%
    19:00 +13°C° 0 mm 1 mps 742 mmHg 69%
    20:00 +13°C° 0 mm 2 mps 743 mmHg 69%
    21:00 +13°C° 0 mm 2 mps 743 mmHg 69%
    22:00 +13°C° 0 mm 2 mps 743 mmHg 70%
    23:00 +12°C° 0 mm 3 mps 743 mmHg 71%

    19 December, Wednesday

    Time Temperature Precipitation Wind Pressure Humidity
    00:00 +11°C° 0 mm 3 mps 743 mmHg 72%
    01:00 +11°C° 0 mm 3 mps 743 mmHg 73%
    02:00 +11°C° 0 mm 3 mps 743 mmHg 74%
    03:00 +11°C° 0 mm 4 mps 743 mmHg 75%
    04:00 +11°C° 0 mm 4 mps 743 mmHg 77%
    05:00 +10°C° 0 mm 4 mps 743 mmHg 78%
    06:00 +10°C° 0 mm 4 mps 743 mmHg 80%
    07:00 +9°C° 0 mm 5 mps 744 mmHg 78%
    08:00 +10°C° 0 mm 5 mps 744 mmHg 77%
    09:00 +10°C° 0 mm 6 mps 744 mmHg 76%
    10:00 +11°C° 0 mm 6 mps 744 mmHg 71%
    11:00 +12°C° 0 mm 7 mps 744 mmHg 67%
    12:00 +14°C° 0 mm 7 mps 744 mmHg 62%
    13:00 +15°C° 0 mm 7 mps 743 mmHg 61%
    14:00 +15°C° 0 mm 7 mps 743 mmHg 59%
    15:00 +16°C° 0 mm 8 mps 742 mmHg 58%
    16:00 +15°C° 0 mm 7 mps 742 mmHg 60%
    17:00 +15°C° 0 mm 7 mps 742 mmHg 62%
    18:00 +14°C° 0 mm 7 mps 742 mmHg 64%
    19:00 +14°C° 0 mm 7 mps 742 mmHg 65%
    20:00 +13°C° 0 mm 8 mps 742 mmHg 66%
    21:00 +12°C° 0 mm 8 mps 742 mmHg 67%
    22:00 +12°C° 0 mm 8 mps 742 mmHg 68%
    23:00 +12°C° 0 mm 8 mps 742 mmHg 69%
    Show more